カタログに戻る

STARLINK-30162

運用中通信VLEO
NORAD 57446·PAYLOAD·🇺🇸 United States

打ち上げ Jul 24, 2023 から Cape Canaveral Space Force Station

Loading…

次のパス (今後24時間)

TLE

最新Source: CelesTrak SupGP

元期: Sep 14, 2026, 21:14 UTC

1 57446C 23105S   26257.88520833  .00026646  00000+0  96571-3 0  2577
2 57446  43.0024 260.3253 0001455 258.1346 222.3764 15.27544575    18

AllMySatでSTARLINK-30162をリアルタイム追跡

Download on the App Store